![]() |
EMODnet Physics ERDDAP
Easier access to scientific data |
log in|
Brought to you by EMODnet Physics |
| Dataset Title: | NDBC - Collection of dew point temperature (DEWT) TimeSeries - IN SITU MultiPointTimeSeriesObservation
|
| Institution: | NDBC (Dataset ID: TS_DEWT_NDBC) |
| Information: | Summary
| License
| FGDC
| ISO 19115
| Metadata
| Background
| Subset
| Data Access Form
| Make a graph
|
| Name | Last modified | Size | Description | |
|---|---|---|---|---|
| Parent Directory | - | - | ||
| 46066_TS_DEWT_012001.nc | 27-Oct-2024 00:16 | 428886 | ||
| 46066_TS_DEWT_012002.nc | 27-Oct-2024 00:17 | 426637 | ||
| 46066_TS_DEWT_012003.nc | 27-Oct-2024 00:17 | 428052 | ||
| 46066_TS_DEWT_012004.nc | 27-Oct-2024 00:17 | 428866 | ||
| 46066_TS_DEWT_012007.nc | 27-Oct-2024 00:17 | 428883 | ||
| 46066_TS_DEWT_012008.nc | 27-Oct-2024 00:17 | 429232 | ||
| 46066_TS_DEWT_012010.nc | 27-Oct-2024 00:17 | 428803 | ||
| 46066_TS_DEWT_012011.nc | 27-Oct-2024 00:17 | 428704 | ||
| 46066_TS_DEWT_012014.nc | 27-Oct-2024 00:17 | 428520 | ||
| 46066_TS_DEWT_012015.nc | 27-Oct-2024 00:17 | 429201 | ||
| 46066_TS_DEWT_012016.nc | 27-Oct-2024 00:17 | 428887 | ||
| 46066_TS_DEWT_012017.nc | 27-Oct-2024 00:17 | 428880 | ||
| 46066_TS_DEWT_012018.nc | 27-Oct-2024 00:17 | 428886 | ||
| 46066_TS_DEWT_012019.nc | 27-Oct-2024 00:17 | 429909 | ||
| 46066_TS_DEWT_012020.nc | 27-Oct-2024 00:17 | 429810 | ||
| 46066_TS_DEWT_012023.nc | 27-Oct-2024 00:17 | 429861 | ||
| 46066_TS_DEWT_022001.nc | 27-Oct-2024 00:17 | 429816 | ||
| 46066_TS_DEWT_022002.nc | 27-Oct-2024 00:17 | 429913 | ||
| 46066_TS_DEWT_022003.nc | 27-Oct-2024 00:17 | 429911 | ||
| 46066_TS_DEWT_022004.nc | 27-Oct-2024 00:17 | 425631 | ||
| 46066_TS_DEWT_022005.nc | 27-Oct-2024 00:18 | 429890 | ||
| 46066_TS_DEWT_022007.nc | 27-Oct-2024 00:18 | 429913 | ||
| 46066_TS_DEWT_022008.nc | 27-Oct-2024 00:18 | 429916 | ||
| 46066_TS_DEWT_022010.nc | 27-Oct-2024 00:18 | 429914 | ||
| 46066_TS_DEWT_022011.nc | 27-Oct-2024 00:18 | 429913 | ||
| 46066_TS_DEWT_022014.nc | 27-Oct-2024 00:18 | 429781 | ||
| 46066_TS_DEWT_022015.nc | 27-Oct-2024 00:18 | 429683 | ||
| 46066_TS_DEWT_022016.nc | 27-Oct-2024 00:18 | 429916 | ||
| 46066_TS_DEWT_022017.nc | 27-Oct-2024 00:18 | 422398 | ||
| 46066_TS_DEWT_022018.nc | 27-Oct-2024 00:18 | 429891 | ||
| 46066_TS_DEWT_022019.nc | 27-Oct-2024 00:18 | 429917 | ||
| 46066_TS_DEWT_022020.nc | 27-Oct-2024 00:18 | 429401 | ||
| 46066_TS_DEWT_022023.nc | 27-Oct-2024 00:18 | 429570 | ||
| 46066_TS_DEWT_032001.nc | 27-Oct-2024 00:18 | 429438 | ||
| 46066_TS_DEWT_032002.nc | 27-Oct-2024 00:18 | 429505 | ||
| 46066_TS_DEWT_032003.nc | 27-Oct-2024 00:18 | 429137 | ||
| 46066_TS_DEWT_032004.nc | 27-Oct-2024 00:18 | 429574 | ||
| 46066_TS_DEWT_032005.nc | 27-Oct-2024 00:18 | 429490 | ||
| 46066_TS_DEWT_032007.nc | 27-Oct-2024 00:18 | 425226 | ||
| 46066_TS_DEWT_032008.nc | 27-Oct-2024 00:18 | 429577 | ||
| 46066_TS_DEWT_032010.nc | 27-Oct-2024 00:18 | 426010 | ||
| 46066_TS_DEWT_032011.nc | 27-Oct-2024 00:18 | 429569 | ||
| 46066_TS_DEWT_032014.nc | 27-Oct-2024 00:19 | 429559 | ||
| 46066_TS_DEWT_032015.nc | 27-Oct-2024 00:19 | 429292 | ||
| 46066_TS_DEWT_032016.nc | 27-Oct-2024 00:19 | 429558 | ||
| 46066_TS_DEWT_032017.nc | 27-Oct-2024 00:19 | 429391 | ||
| 46066_TS_DEWT_032018.nc | 27-Oct-2024 00:19 | 429496 | ||
| 46066_TS_DEWT_032019.nc | 27-Oct-2024 00:19 | 429574 | ||
| 46066_TS_DEWT_032020.nc | 27-Oct-2024 00:19 | 429549 | ||
| 46066_TS_DEWT_032023.nc | 27-Oct-2024 00:19 | 429896 | ||
| 46066_TS_DEWT_042001.nc | 27-Oct-2024 00:19 | 429587 | ||
| 46066_TS_DEWT_042002.nc | 27-Oct-2024 00:19 | 429912 | ||
| 46066_TS_DEWT_042003.nc | 27-Oct-2024 00:19 | 429725 | ||
| 46066_TS_DEWT_042004.nc | 27-Oct-2024 00:19 | 429910 | ||
| 46066_TS_DEWT_042005.nc | 27-Oct-2024 00:19 | 429911 | ||
| 46066_TS_DEWT_042007.nc | 27-Oct-2024 00:19 | 429916 | ||
| 46066_TS_DEWT_042008.nc | 27-Oct-2024 00:19 | 429912 | ||
| 46066_TS_DEWT_042010.nc | 27-Oct-2024 00:19 | 429913 | ||
| 46066_TS_DEWT_042011.nc | 27-Oct-2024 00:19 | 429913 | ||
| 46066_TS_DEWT_042014.nc | 27-Oct-2024 00:19 | 429891 | ||
| 46066_TS_DEWT_042015.nc | 27-Oct-2024 00:19 | 429841 | ||
| 46066_TS_DEWT_042016.nc | 27-Oct-2024 00:19 | 428977 | ||
| 46066_TS_DEWT_042017.nc | 27-Oct-2024 00:19 | 429917 | ||
| 46066_TS_DEWT_042018.nc | 27-Oct-2024 00:19 | 429887 | ||
| 46066_TS_DEWT_042019.nc | 27-Oct-2024 00:19 | 429915 | ||
| 46066_TS_DEWT_042020.nc | 27-Oct-2024 00:20 | 429602 | ||
| 46066_TS_DEWT_042023.nc | 27-Oct-2024 00:20 | 428091 | ||
| 46066_TS_DEWT_052000.nc | 27-Oct-2024 00:20 | 429228 | ||
| 46066_TS_DEWT_052001.nc | 27-Oct-2024 00:20 | 429523 | ||
| 46066_TS_DEWT_052002.nc | 27-Oct-2024 00:20 | 429066 | ||
| 46066_TS_DEWT_052003.nc | 27-Oct-2024 00:20 | 429494 | ||
| 46066_TS_DEWT_052004.nc | 27-Oct-2024 00:20 | 429530 | ||
| 46066_TS_DEWT_052005.nc | 27-Oct-2024 00:20 | 429565 | ||
| 46066_TS_DEWT_052007.nc | 27-Oct-2024 00:20 | 429353 | ||
| 46066_TS_DEWT_052008.nc | 27-Oct-2024 00:20 | 429302 | ||
| 46066_TS_DEWT_052010.nc | 27-Oct-2024 00:20 | 427418 | ||
| 46066_TS_DEWT_052011.nc | 27-Oct-2024 00:20 | 429493 | ||
| 46066_TS_DEWT_052014.nc | 27-Oct-2024 00:20 | 429569 | ||
| 46066_TS_DEWT_052015.nc | 27-Oct-2024 00:20 | 429075 | ||
| 46066_TS_DEWT_052016.nc | 27-Oct-2024 00:20 | 429357 | ||
| 46066_TS_DEWT_052017.nc | 27-Oct-2024 00:20 | 429406 | ||
| 46066_TS_DEWT_052018.nc | 27-Oct-2024 00:20 | 429288 | ||
| 46066_TS_DEWT_052019.nc | 27-Oct-2024 00:20 | 429555 | ||
| 46066_TS_DEWT_052020.nc | 27-Oct-2024 00:21 | 429569 | ||
| 46066_TS_DEWT_052023.nc | 27-Oct-2024 00:21 | 429917 | ||
| 46066_TS_DEWT_062000.nc | 27-Oct-2024 00:21 | 429641 | ||
| 46066_TS_DEWT_062001.nc | 27-Oct-2024 00:21 | 429745 | ||
| 46066_TS_DEWT_062002.nc | 27-Oct-2024 00:21 | 429917 | ||
| 46066_TS_DEWT_062003.nc | 27-Oct-2024 00:21 | 418875 | ||
| 46066_TS_DEWT_062005.nc | 27-Oct-2024 00:21 | 429907 | ||
| 46066_TS_DEWT_062007.nc | 27-Oct-2024 00:21 | 429919 | ||
| 46066_TS_DEWT_062008.nc | 27-Oct-2024 00:21 | 429911 | ||
| 46066_TS_DEWT_062009.nc | 27-Oct-2024 00:21 | 429832 | ||
| 46066_TS_DEWT_062010.nc | 27-Oct-2024 00:21 | 429914 | ||
| 46066_TS_DEWT_062011.nc | 27-Oct-2024 00:21 | 429681 | ||
| 46066_TS_DEWT_062014.nc | 27-Oct-2024 00:21 | 429909 | ||
| 46066_TS_DEWT_062015.nc | 27-Oct-2024 00:21 | 429902 | ||
| 46066_TS_DEWT_062016.nc | 27-Oct-2024 00:21 | 429719 | ||
| 46066_TS_DEWT_062017.nc | 27-Oct-2024 00:21 | 429910 | ||
| 46066_TS_DEWT_062018.nc | 27-Oct-2024 00:22 | 429916 | ||
| 46066_TS_DEWT_062019.nc | 27-Oct-2024 00:22 | 429892 | ||
| 46066_TS_DEWT_062020.nc | 27-Oct-2024 00:22 | 429915 | ||
| 46066_TS_DEWT_062021.nc | 27-Oct-2024 00:22 | 429711 | ||
| 46066_TS_DEWT_062022.nc | 27-Oct-2024 00:22 | 429014 | ||
| 46066_TS_DEWT_062023.nc | 27-Oct-2024 00:22 | 429914 | ||
| 46066_TS_DEWT_062025.nc | 17-Jul-2025 04:12 | 429911 | ||
| 46066_TS_DEWT_072000.nc | 27-Oct-2024 00:22 | 429914 | ||
| 46066_TS_DEWT_072001.nc | 27-Oct-2024 00:22 | 429913 | ||
| 46066_TS_DEWT_072002.nc | 27-Oct-2024 00:22 | 429744 | ||
| 46066_TS_DEWT_072003.nc | 27-Oct-2024 00:22 | 429916 | ||
| 46066_TS_DEWT_072005.nc | 27-Oct-2024 00:22 | 429911 | ||
| 46066_TS_DEWT_072007.nc | 27-Oct-2024 00:22 | 429914 | ||
| 46066_TS_DEWT_072008.nc | 27-Oct-2024 00:22 | 429218 | ||
| 46066_TS_DEWT_072009.nc | 27-Oct-2024 00:22 | 429894 | ||
| 46066_TS_DEWT_072010.nc | 27-Oct-2024 00:22 | 429915 | ||
| 46066_TS_DEWT_072011.nc | 27-Oct-2024 00:22 | 429651 | ||
| 46066_TS_DEWT_072014.nc | 27-Oct-2024 00:22 | 429914 | ||
| 46066_TS_DEWT_072015.nc | 27-Oct-2024 00:22 | 429897 | ||
| 46066_TS_DEWT_072016.nc | 27-Oct-2024 00:22 | 428938 | ||
| 46066_TS_DEWT_072017.nc | 27-Oct-2024 00:23 | 427729 | ||
| 46066_TS_DEWT_072018.nc | 27-Oct-2024 00:23 | 426046 | ||
| 46066_TS_DEWT_072019.nc | 27-Oct-2024 00:23 | 429346 | ||
| 46066_TS_DEWT_072020.nc | 27-Oct-2024 00:23 | 426063 | ||
| 46066_TS_DEWT_072021.nc | 27-Oct-2024 00:23 | 429575 | ||
| 46066_TS_DEWT_072022.nc | 27-Oct-2024 00:23 | 429570 | ||
| 46066_TS_DEWT_072023.nc | 27-Oct-2024 00:23 | 429573 | ||
| 46066_TS_DEWT_072025.nc | 01-Aug-2025 03:56 | 429345 | ||
| 46066_TS_DEWT_082000.nc | 27-Oct-2024 00:23 | 429572 | ||
| 46066_TS_DEWT_082001.nc | 27-Oct-2024 00:23 | 429574 | ||
| 46066_TS_DEWT_082002.nc | 27-Oct-2024 00:23 | 429377 | ||
| 46066_TS_DEWT_082003.nc | 27-Oct-2024 00:23 | 429352 | ||
| 46066_TS_DEWT_082004.nc | 27-Oct-2024 00:23 | 429566 | ||
| 46066_TS_DEWT_082005.nc | 27-Oct-2024 00:23 | 429263 | ||
| 46066_TS_DEWT_082006.nc | 27-Oct-2024 00:23 | 429571 | ||
| 46066_TS_DEWT_082007.nc | 27-Oct-2024 00:23 | 429187 | ||
| 46066_TS_DEWT_082008.nc | 27-Oct-2024 00:23 | 429576 | ||
| 46066_TS_DEWT_082009.nc | 27-Oct-2024 00:23 | 429867 | ||
| 46066_TS_DEWT_082010.nc | 27-Oct-2024 00:23 | 429626 | ||
| 46066_TS_DEWT_082011.nc | 27-Oct-2024 00:23 | 429842 | ||
| 46066_TS_DEWT_082013.nc | 27-Oct-2024 00:23 | 429914 | ||
| 46066_TS_DEWT_082014.nc | 27-Oct-2024 00:24 | 429914 | ||
| 46066_TS_DEWT_082015.nc | 27-Oct-2024 00:24 | 429802 | ||
| 46066_TS_DEWT_082016.nc | 27-Oct-2024 00:24 | 429914 | ||
| 46066_TS_DEWT_082017.nc | 27-Oct-2024 00:24 | 429913 | ||
| 46066_TS_DEWT_082018.nc | 27-Oct-2024 00:24 | 429912 | ||
| 46066_TS_DEWT_082019.nc | 27-Oct-2024 00:24 | 429917 | ||
| 46066_TS_DEWT_082020.nc | 27-Oct-2024 00:24 | 429059 | ||
| 46066_TS_DEWT_082021.nc | 27-Oct-2024 00:24 | 429914 | ||
| 46066_TS_DEWT_082022.nc | 27-Oct-2024 00:24 | 429913 | ||
| 46066_TS_DEWT_082023.nc | 27-Oct-2024 00:24 | 429896 | ||
| 46066_TS_DEWT_082024.nc | 09-Jan-2025 11:21 | 429896 | ||
| 46066_TS_DEWT_082025.nc | 01-Sep-2025 04:03 | 429393 | ||
| 46066_TS_DEWT_092000.nc | 27-Oct-2024 00:24 | 429912 | ||
| 46066_TS_DEWT_092001.nc | 27-Oct-2024 00:24 | 429219 | ||
| 46066_TS_DEWT_092002.nc | 27-Oct-2024 00:24 | 429571 | ||
| 46066_TS_DEWT_092003.nc | 27-Oct-2024 00:24 | 429164 | ||
| 46066_TS_DEWT_092004.nc | 27-Oct-2024 00:24 | 429182 | ||
| 46066_TS_DEWT_092005.nc | 27-Oct-2024 00:24 | 429572 | ||
| 46066_TS_DEWT_092006.nc | 27-Oct-2024 00:25 | 429442 | ||
| 46066_TS_DEWT_092007.nc | 27-Oct-2024 00:25 | 429573 | ||
| 46066_TS_DEWT_092008.nc | 27-Oct-2024 00:25 | 429568 | ||
| 46066_TS_DEWT_092009.nc | 27-Oct-2024 00:25 | 429569 | ||
| 46066_TS_DEWT_092010.nc | 27-Oct-2024 00:25 | 429456 | ||
| 46066_TS_DEWT_092011.nc | 27-Oct-2024 00:25 | 429427 | ||
| 46066_TS_DEWT_092013.nc | 27-Oct-2024 00:25 | 428123 | ||
| 46066_TS_DEWT_092014.nc | 27-Oct-2024 00:25 | 429169 | ||
| 46066_TS_DEWT_092015.nc | 27-Oct-2024 00:25 | 429277 | ||
| 46066_TS_DEWT_092016.nc | 27-Oct-2024 00:25 | 429492 | ||
| 46066_TS_DEWT_092017.nc | 27-Oct-2024 00:25 | 429574 | ||
| 46066_TS_DEWT_092018.nc | 27-Oct-2024 00:25 | 429571 | ||
| 46066_TS_DEWT_092019.nc | 27-Oct-2024 00:25 | 429837 | ||
| 46066_TS_DEWT_092020.nc | 27-Oct-2024 00:25 | 429056 | ||
| 46066_TS_DEWT_092021.nc | 27-Oct-2024 00:25 | 429905 | ||
| 46066_TS_DEWT_092022.nc | 27-Oct-2024 00:25 | 429611 | ||
| 46066_TS_DEWT_092023.nc | 27-Oct-2024 00:25 | 429917 | ||
| 46066_TS_DEWT_092024.nc | 10-Jan-2025 21:35 | 429912 | ||
| 46066_TS_DEWT_092025.nc | 28-Sep-2025 03:23 | 429913 | ||
| 46066_TS_DEWT_102000.nc | 27-Oct-2024 00:25 | 429916 | ||
| 46066_TS_DEWT_102001.nc | 27-Oct-2024 00:25 | 429913 | ||
| 46066_TS_DEWT_102002.nc | 27-Oct-2024 00:26 | 429231 | ||
| 46066_TS_DEWT_102003.nc | 27-Oct-2024 00:26 | 429467 | ||
| 46066_TS_DEWT_102006.nc | 27-Oct-2024 00:26 | 429579 | ||
| 46066_TS_DEWT_102007.nc | 27-Oct-2024 00:26 | 429913 | ||
| 46066_TS_DEWT_102009.nc | 27-Oct-2024 00:26 | 429914 | ||
| 46066_TS_DEWT_102010.nc | 27-Oct-2024 00:26 | 429913 | ||
| 46066_TS_DEWT_102011.nc | 27-Oct-2024 00:26 | 429686 | ||
| 46066_TS_DEWT_102013.nc | 27-Oct-2024 00:26 | 424579 | ||
| 46066_TS_DEWT_102014.nc | 27-Oct-2024 00:26 | 429970 | ||
| 46066_TS_DEWT_102015.nc | 27-Oct-2024 00:26 | 429866 | ||
| 46066_TS_DEWT_102016.nc | 27-Oct-2024 00:26 | 429032 | ||
| 46066_TS_DEWT_102017.nc | 27-Oct-2024 00:26 | 429803 | ||
| 46066_TS_DEWT_102018.nc | 27-Oct-2024 00:26 | 429688 | ||
| 46066_TS_DEWT_102019.nc | 27-Oct-2024 00:26 | 429752 | ||
| 46066_TS_DEWT_102020.nc | 27-Oct-2024 00:26 | 429695 | ||
| 46066_TS_DEWT_102021.nc | 27-Oct-2024 00:26 | 429790 | ||
| 46066_TS_DEWT_102022.nc | 27-Oct-2024 00:26 | 429875 | ||
| 46066_TS_DEWT_102023.nc | 27-Oct-2024 00:27 | 429882 | ||
| 46066_TS_DEWT_102024.nc | 11-Jan-2025 23:05 | 429889 | ||
| 46066_TS_DEWT_112000.nc | 27-Oct-2024 00:27 | 429787 | ||
| 46066_TS_DEWT_112001.nc | 27-Oct-2024 00:27 | 428020 | ||
| 46066_TS_DEWT_112002.nc | 27-Oct-2024 00:27 | 429776 | ||
| 46066_TS_DEWT_112003.nc | 27-Oct-2024 00:27 | 429865 | ||
| 46066_TS_DEWT_112006.nc | 27-Oct-2024 00:27 | 429688 | ||
| 46066_TS_DEWT_112007.nc | 27-Oct-2024 00:27 | 429179 | ||
| 46066_TS_DEWT_112009.nc | 27-Oct-2024 00:27 | 428972 | ||
| 46066_TS_DEWT_112010.nc | 27-Oct-2024 00:27 | 428858 | ||
| 46066_TS_DEWT_112013.nc | 27-Oct-2024 00:27 | 428657 | ||
| 46066_TS_DEWT_112014.nc | 27-Oct-2024 00:27 | 428676 | ||
| 46066_TS_DEWT_112015.nc | 27-Oct-2024 00:27 | 429215 | ||
| 46066_TS_DEWT_112016.nc | 27-Oct-2024 00:27 | 428858 | ||
| 46066_TS_DEWT_112017.nc | 27-Oct-2024 00:27 | 429023 | ||
| 46066_TS_DEWT_112018.nc | 27-Oct-2024 00:27 | 428718 | ||
| 46066_TS_DEWT_112019.nc | 27-Oct-2024 00:27 | 428855 | ||
| 46066_TS_DEWT_112020.nc | 27-Oct-2024 00:28 | 428855 | ||
| 46066_TS_DEWT_112021.nc | 27-Oct-2024 00:28 | 429204 | ||
| 46066_TS_DEWT_112022.nc | 27-Oct-2024 00:28 | 428710 | ||
| 46066_TS_DEWT_112023.nc | 27-Oct-2024 00:28 | 428858 | ||
| 46066_TS_DEWT_122001.nc | 27-Oct-2024 00:28 | 428653 | ||
| 46066_TS_DEWT_122002.nc | 27-Oct-2024 00:28 | 428945 | ||
| 46066_TS_DEWT_122003.nc | 27-Oct-2024 00:28 | 428859 | ||
| 46066_TS_DEWT_122006.nc | 27-Oct-2024 00:28 | 428807 | ||
| 46066_TS_DEWT_122007.nc | 27-Oct-2024 00:28 | 425646 | ||
| 46066_TS_DEWT_122009.nc | 27-Oct-2024 00:28 | 429883 | ||
| 46066_TS_DEWT_122010.nc | 27-Oct-2024 00:28 | 429743 | ||
| 46066_TS_DEWT_122013.nc | 27-Oct-2024 00:28 | 429833 | ||
| 46066_TS_DEWT_122014.nc | 27-Oct-2024 00:28 | 429794 | ||
| 46066_TS_DEWT_122015.nc | 27-Oct-2024 00:28 | 429887 | ||
| 46066_TS_DEWT_122016.nc | 27-Oct-2024 00:28 | 429885 | ||
| 46066_TS_DEWT_122017.nc | 27-Oct-2024 00:28 | 427711 | ||
| 46066_TS_DEWT_122018.nc | 27-Oct-2024 00:29 | 429864 | ||
| 46066_TS_DEWT_122019.nc | 27-Oct-2024 00:29 | 429887 | ||
| 46066_TS_DEWT_122021.nc | 27-Oct-2024 00:29 | 429890 | ||
| 46066_TS_DEWT_122022.nc | 27-Oct-2024 00:29 | 429888 | ||
| 46066_TS_DEWT_122023.nc | 06-Dec-2024 08:50 | 429544 | ||